PulseSat

PulseSat

COSMOS 2460 (732)

Last updated on Jan. 17, 2019, 2:58 a.m. UTC

1 36402U 10007C   19016.73758541 -.00000004  00000-0  10000-3 0  9999
2 36402  65.6774  45.1792 0002287 264.0448 196.7829  2.13101560 69104
UTC
Height (km)
Latitude
Longitude
Inclination
Orbital Period

Next 30 passes for location: Hong Kong

Rise time Rise Azimuth (degrees) Set time Set Azimuth (degrees) Duration Max altitude (degrees)

No matching passes for this satellites

PulseSat

PulseSat is the new satellites software and hardware trackering solution by Pulsely.
Satellite Two Line Element Set source: US Air Force Space Command

Download PulseSat for iOS
© 2017 Pulsely Limited